DW1980 Weather Reports


Display with metric or nautical units.
time (UTC)temp
F
wind
direction
speed
MPH
gust
MPH
rain 1hr
in
rain 24hr
in
rain mn
in
humidity
%
barometer
mb
20260831084843 67 331 0.0 1.0 0.00 0.10 0.00 94 1019.6
20260831084629 66 0 0.0 1.0 0.00 0.10 0.00 93 1019.2
20260831084614 66 331 0.0 1.0 0.00 0.10 0.00 94 1019.2
20260831084353 67 317 0.0 1.0 0.00 0.10 0.00 94 1019.7
20260831083906 67 26 0.0 0.0 0.00 0.10 0.00 94 1019.7
20260831083356 67 18 0.0 0.0 0.00 0.10 0.00 94 1019.7
20260831083122 66 18 0.0 0.0 0.00 0.10 0.00 94 1019.3
20260831083049 66 0 0.0 0.0 0.00 0.10 0.00 93 1019.4
20260831082844 67 18 0.0 0.0 0.00 0.10 0.00 94 1019.7
20260831082354 67 18 0.0 2.0 0.00 0.10 0.00 94 1019.7
20260831081845 67 18 1.0 2.0 0.00 0.10 0.00 94 1019.7
20260831081613 66 18 0.0 2.0 0.00 0.10 0.00 94 1019.3
20260831081556 66 0 0.0 1.0 0.00 0.10 0.00 93 1019.3
20260831081355 67 18 0.0 1.0 0.00 0.10 0.00 94 1019.8
20260831080846 67 18 0.0 1.0 0.00 0.10 0.00 94 1019.7
20260831080358 67 18 0.0 0.0 0.00 0.10 0.00 94 1019.6
20260831080116 66 0 0.0 0.0 0.00 0.10 0.00 93 1019.2
20260831080105 66 18 0.0 0.0 0.00 0.10 0.00 93 1019.2
20260831075845 67 18 0.0 0.0 0.00 0.10 0.00 93 1019.6
20260831075355 67 18 0.0 0.0 0.00 0.10 0.00 93 1019.5
20260831074846 67 18 0.0 0.0 0.00 0.10 0.00 93 1019.5
20260831074616 67 18 0.0 0.0 0.00 0.10 0.00 93 1019.1
20260831074551 67 0 0.0 0.0 0.00 0.10 0.00 93 1019.1
20260831074336 67 18 0.0 0.0 0.00 0.10 0.00 93 1019.5
20260831073847 67 18 0.0 0.0 0.00 0.10 0.00 93 1019.4
20260831073359 67 18 0.0 1.0 0.00 0.10 0.00 93 1019.6
20260831073105 67 18 0.0 1.0 0.00 0.10 0.00 93 1019.2
20260831073050 67 0 0.0 1.0 0.00 0.10 0.00 93 1019.3
20260831072847 67 18 0.0 1.0 0.00 0.10 0.00 93 1019.6
20260831072338 67 18 0.0 1.0 0.00 0.10 0.00 93 1019.5
20260831071847 67 18 0.0 1.0 0.00 0.10 0.00 93 1019.5
20260831071615 67 18 0.0 0.0 0.00 0.10 0.00 93 1019.1
20260831071601 67 0 0.0 0.0 0.00 0.10 0.00 93 1019.1
20260831071342 67 18 0.0 0.0 0.00 0.10 0.00 93 1019.6
20260831070854 67 18 0.0 1.0 0.00 0.10 0.00 93 1019.6
20260831070346 67 18 0.0 1.0 0.00 0.10 0.00 93 1019.7
20260831070111 67 18 0.0 1.0 0.00 0.10 0.00 93 1019.2
20260831070052 67 0 0.0 1.0 0.00 0.10 0.00 93 1019.3
20260831065853 67 18 0.0 1.0 0.00 0.10 0.00 93 1019.6
20260831065341 67 18 0.0 1.0 0.00 0.10 0.00 93 1019.6
20260831064851 67 18 0.0 1.0 0.00 0.10 0.00 93 1019.7
20260831064616 67 18 0.0 1.0 0.00 0.10 0.00 93 1019.3
20260831064551 67 0 0.0 1.0 0.00 0.10 0.00 92 1019.4
20260831064342 68 18 0.0 1.0 0.00 0.10 0.00 93 1019.7
20260831063911 68 18 0.0 1.0 0.00 0.10 0.00 93 1019.7
20260831063420 68 18 0.0 1.0 0.00 0.10 0.00 93 1019.6
20260831063121 67 18 0.0 1.0 0.00 0.10 0.00 93 1019.1
20260831063102 67 0 0.0 1.0 0.00 0.10 0.00 92 1019.3
20260831062844 68 18 0.0 1.0 0.00 0.10 0.00 93 1019.6
20260831062354 68 18 0.0 1.0 0.00 0.10 0.00 93 1019.7
20260831061846 68 18 0.0 1.0 0.00 0.10 0.00 93 1019.5
20260831061610 68 18 0.0 1.0 0.00 0.10 0.00 93 1019.0
20260831061554 68 0 0.0 1.0 0.00 0.10 0.00 92 1019.1
20260831061357 68 18 0.0 1.0 0.00 0.10 0.00 93 1019.4
20260831060845 69 18 0.0 1.0 0.00 0.10 0.00 93 1019.4
20260831060354 69 18 0.0 1.0 0.00 0.10 0.00 93 1019.6
20260831060114 68 18 0.0 1.0 0.00 0.10 0.00 93 1019.2
20260831060056 68 0 0.0 1.0 0.00 0.10 0.00 92 1019.3
20260831055839 69 18 0.0 1.0 0.00 0.10 0.00 93 1019.6
20260831055349 69 18 1.0 1.0 0.00 0.10 0.00 93 1019.5
20260831054840 69 329 0.0 1.0 0.00 0.10 0.00 93 1019.4
20260831054610 68 329 0.0 2.0 0.00 0.10 0.00 93 1018.8
20260831054547 68 0 0.0 2.0 0.00 0.10 0.00 92 1019.0
20260831054350 69 329 0.0 2.0 0.00 0.10 0.00 93 1019.2
20260831053839 69 9 1.0 2.0 0.00 0.10 0.00 93 1019.2
20260831053351 69 19 1.0 2.0 0.00 0.10 0.00 93 1019.3
20260831053116 68 355 0.0 2.0 0.00 0.10 0.00 93 1018.9
20260831053059 68 13 0.0 0.0 0.00 0.10 0.00 92 1019.1
20260831052838 69 296 0.0 0.0 0.00 0.10 0.00 93 1019.3
20260831052349 69 296 0.0 0.0 0.00 0.10 0.00 93 1019.2
20260831051839 69 296 0.0 0.0 0.00 0.10 0.00 93 1019.2
20260831051624 69 296 0.0 0.0 0.00 0.10 0.00 93 1018.9
20260831051547 69 0 0.0 1.0 0.00 0.10 0.00 92 1019.0
20260831051350 69 296 0.0 1.0 0.00 0.10 0.00 93 1019.3
20260831050840 69 296 0.0 3.0 0.00 0.10 0.00 93 1019.3
20260831050352 69 296 1.0 4.0 0.00 0.10 0.00 93 1019.2
20260831050117 69 284 1.0 4.0 0.00 0.10 0.00 93 1018.8
20260831050103 69 280 1.0 4.0 0.00 0.10 0.00 92 1019.0
20260831045838 69 284 2.0 3.0 0.00 0.10 0.00 93 1019.2
20260831045348 69 283 1.0 3.0 0.00 0.10 0.00 93 1019.3
20260831044858 69 283 1.0 2.0 0.00 0.10 0.00 93 1019.3
20260831044605 69 293 1.0 2.0 0.00 0.10 0.00 93 1018.9
20260831044552 69 293 1.0 3.0 0.00 0.10 0.00 92 1019.0
20260831044348 69 293 1.0 3.0 0.00 0.10 0.00 93 1019.2
20260831043839 70 293 1.0 3.0 0.00 0.10 0.00 93 1019.2
20260831043351 70 285 0.0 2.0 0.00 0.10 0.00 92 1019.2
20260831043115 69 285 0.0 2.0 0.00 0.10 0.00 92 1018.7
20260831043050 69 0 1.0 2.0 0.00 0.10 0.00 92 1018.9
20260831042858 70 296 1.0 2.0 0.00 0.10 0.00 92 1019.2
20260831042346 70 288 1.0 2.0 0.00 0.10 0.00 92 1019.1
20260831041836 70 293 0.0 1.0 0.00 0.10 0.00 93 1019.1
20260831041614 70 293 0.0 1.0 0.00 0.10 0.00 93 1018.8
20260831041549 70 0 0.0 3.0 0.00 0.10 0.00 92 1018.9
20260831041346 70 293 0.0 3.0 0.00 0.10 0.00 93 1019.2
20260831040841 70 293 0.0 3.0 0.00 0.10 0.00 93 1019.2
20260831040352 70 290 1.0 3.0 0.00 0.10 0.00 93 1019.1
20260831040109 70 302 1.0 3.0 0.00 0.10 0.00 93 1018.8
20260831040055 70 302 1.0 3.0 0.01 0.10 0.00 92 1018.8
20260831035836 70 292 1.0 3.0 0.01 0.10 0.10 93 1019.1
20260831035346 71 275 1.0 2.0 0.01 0.10 0.10 93 1019.0
20260831034835 71 302 2.0 2.0 0.01 0.10 0.10 93 1019.1
20260831034559 70 298 1.0 2.0 0.01 0.10 0.10 92 1018.8
20260831034508 70 298 1.0 2.0 0.01 0.10 0.10 93 1018.7
20260831034407 71 298 1.0 2.0 0.01 0.10 0.10 93 1019.1
20260831033854 71 313 0.0 2.0 0.01 0.10 0.10 93 1019.2
20260831033344 71 303 1.0 2.0 0.02 0.10 0.10 93 1019.2
20260831033103 70 303 0.0 2.0 0.02 0.10 0.10 93 1018.8
20260831033058 70 0 0.0 1.0 0.02 0.10 0.10 92 1018.8
20260831032848 71 300 0.0 1.0 0.02 0.10 0.10 93 1019.2
20260831032417 71 300 0.0 2.0 0.02 0.10 0.10 93 1019.2
20260831031844 71 300 0.0 2.0 0.02 0.10 0.10 93 1019.3
20260831031606 71 286 0.0 1.0 0.02 0.10 0.10 93 1019.0
20260831031546 71 0 0.0 2.0 0.02 0.10 0.10 92 1019.0
20260831031352 71 286 0.0 2.0 0.02 0.10 0.10 92 1019.4
20260831030840 71 286 0.0 3.0 0.02 0.10 0.10 92 1019.5
20260831030350 71 249 1.0 4.0 0.02 0.10 0.10 92 1019.6
20260831030116 71 304 1.0 6.0 0.02 0.10 0.10 92 1019.4
20260831030051 71 298 1.0 8.0 0.01 0.09 0.09 92 1019.5
20260831025855 71 315 2.0 8.0 0.01 0.09 0.09 92 1019.8
20260831025344 71 290 3.0 8.0 0.01 0.09 0.09 93 1019.7
20260831024854 72 342 1.0 5.0 0.01 0.09 0.09 93 1019.8
20260831024639 71 276 2.0 5.0 0.01 0.09 0.09 93 1019.4
20260831024558 71 0 1.0 6.0 0.01 0.09 0.09 93 1019.5
20260831024406 72 278 1.0 3.0 0.01 0.09 0.09 93 1019.9
20260831023915 72 284 2.0 3.0 0.01 0.09 0.09 93 1019.7
20260831023345 72 313 2.0 3.0 0.00 0.08 0.08 93 1019.7
20260831023110 71 306 0.0 2.0 0.01 0.08 0.08 93 1019.3
20260831023046 71 0 0.0 3.0 0.01 0.08 0.08 93 1019.4
20260831022853 72 306 1.0 3.0 0.01 0.08 0.08 93 1019.6
20260831022343 72 301 1.0 3.0 0.01 0.08 0.08 93 1019.7
20260831021855 72 284 0.0 2.0 0.01 0.08 0.08 93 1019.6
20260831021608 71 242 0.0 2.0 0.01 0.08 0.08 93 1019.2
20260831021554 71 242 0.0 2.0 0.01 0.08 0.08 92 1019.3
20260831021344 72 242 1.0 2.0 0.01 0.08 0.08 93 1019.6
20260831020916 72 225 1.0 2.0 0.02 0.08 0.08 93 1019.7
20260831020346 72 242 0.0 2.0 0.02 0.08 0.08 93 1019.7
20260831020112 72 252 0.0 2.0 0.02 0.08 0.08 93 1019.3
20260831020056 72 0 0.0 2.0 0.02 0.08 0.08 92 1019.4
20260831015853 72 252 1.0 2.0 0.03 0.08 0.08 93 1019.7
20260831015344 72 290 0.0 1.0 0.03 0.08 0.08 93 1019.7
20260831014855 72 290 0.0 1.0 0.03 0.08 0.08 93 1019.6
20260831014614 72 290 0.0 1.0 0.03 0.08 0.08 93 1019.2
20260831014553 72 0 0.0 1.0 0.03 0.08 0.08 92 1019.3
20260831014345 72 290 0.0 1.0 0.04 0.08 0.08 93 1019.5
20260831013855 72 290 0.0 0.0 0.04 0.08 0.08 93 1019.5
20260831013408 72 290 0.0 0.0 0.04 0.08 0.08 93 1019.4
20260831013115 72 290 0.0 0.0 0.03 0.07 0.07 93 1019.1
20260831013048 72 0 0.0 0.0 0.03 0.07 0.07 92 1019.2
20260831012854 72 290 0.0 0.0 0.03 0.07 0.07 93 1019.5
20260831012344 73 290 0.0 0.0 0.04 0.07 0.07 92 1019.5
20260831011855 73 290 0.0 0.0 0.04 0.07 0.07 92 1019.4
20260831011605 72 290 0.0 1.0 0.05 0.07 0.07 92 1019.0
20260831011600 72 0 0.0 1.0 0.05 0.07 0.07 92 1019.2
20260831011345 73 290 0.0 1.0 0.05 0.07 0.07 93 1019.4
20260831010836 73 290 0.0 1.0 0.04 0.06 0.06 92 1019.4
20260831010348 73 290 0.0 1.0 0.05 0.06 0.06 92 1019.5
20260831010112 72 290 0.0 0.0 0.05 0.06 0.06 92 1018.9
20260831005854 73 290 0.0 1.0 0.04 0.05 0.05 92 1019.3
20260831005344 73 290 0.0 2.0 0.04 0.05 0.05 92 1019.3
20260831004839 73 294 1.0 2.0 0.05 0.05 0.05 92 1019.3
20260831004605 73 240 0.0 1.0 0.05 0.05 0.05 92 1018.8
20260831004555 73 0 0.0 2.0 0.04 0.04 0.04 91 1019.0
20260831004350 73 240 0.0 2.0 0.04 0.04 0.04 92 1019.2
20260831003841 73 240 1.0 2.0 0.04 0.04 0.04 92 1019.2
20260831003353 73 265 0.0 2.0 0.04 0.04 0.04 92 1019.2
20260831003112 73 265 0.0 1.0 0.04 0.04 0.04 92 1018.8
20260831003052 73 0 0.0 1.0 0.04 0.04 0.04 91 1019.0
20260831002839 73 265 0.0 1.0 0.03 0.03 0.03 92 1019.2
20260831002350 74 292 0.0 1.0 0.03 0.03 0.03 92 1019.1
20260831001840 74 292 0.0 1.0 0.03 0.03 0.03 91 1019.0
20260831001607 73 292 0.0 1.0 0.02 0.02 0.02 91 1018.6
20260831001554 73 0 0.0 2.0 0.02 0.02 0.02 91 1018.8
20260831001350 74 292 0.0 2.0 0.02 0.02 0.02 91 1018.9
20260831000841 74 292 1.0 2.0 0.02 0.02 0.02 91 1018.9
20260831000355 74 246 0.0 1.0 0.01 0.01 0.01 91 1018.8
20260831000118 74 246 0.0 1.0 0.01 0.01 0.01 91 1018.4
20260831000048 74 0 0.0 1.0 0.01 0.01 0.01 90 1018.5
20260830235840 74 246 0.0 1.0 0.01 0.01 0.01 91 1018.8
20260830235350 74 246 0.0 1.0 0.01 0.01 0.01 90 1018.7
20260830234841 74 246 0.0 1.0 0.00 0.00 0.00 90 1018.6
20260830234616 74 246 0.0 1.0 0.00 0.00 0.00 90 1018.2
20260830234554 74 0 0.0 2.0 0.00 0.00 0.00 90 1018.4
20260830234352 75 246 0.0 2.0 0.00 0.00 0.00 90 1018.6
20260830233842 75 246 0.0 2.0 0.00 0.00 0.00 89 1018.5
20260830233352 75 246 1.0 2.0 0.00 0.00 0.00 89 1018.5
20260830233117 74 246 0.0 1.0 0.00 0.00 0.00 89 1018.0
20260830233111 74 0 0.0 1.0 0.00 0.00 0.00 89 1018.2
20260830232839 75 246 0.0 1.0 0.00 0.00 0.00 89 1018.4
20260830232349 75 246 0.0 0.0 0.00 0.00 0.00 89 1018.4
20260830231839 75 246 0.0 0.0 0.00 0.00 0.00 88 1018.3
20260830231607 75 246 0.0 0.0 0.00 0.00 0.00 88 1017.9
20260830231552 75 0 0.0 2.0 0.00 0.00 0.00 88 1018.1
20260830231349 75 246 0.0 2.0 0.00 0.00 0.00 88 1018.2
20260830230839 76 246 0.0 2.0 0.00 0.00 0.00 88 1018.2
20260830230351 76 246 0.0 1.0 0.00 0.00 0.00 88 1018.3
20260830230114 75 246 0.0 1.0 0.00 0.00 0.00 88 1017.9
20260830230109 75 0 0.0 2.0 0.00 0.00 0.00 87 1018.0
20260830225836 76 246 0.0 2.0 0.00 0.00 0.00 87 1018.3
20260830225346 76 246 0.0 2.0 0.00 0.00 0.00 87 1018.4
20260830224837 76 246 1.0 3.0 0.00 0.00 0.00 87 1018.3
20260830224606 76 246 0.0 3.0 0.00 0.00 0.00 86 1017.9
20260830224554 76 246 0.0 3.0 0.00 0.00 0.00 86 1018.0
20260830224348 76 209 1.0 3.0 0.00 0.00 0.00 86 1018.3
20260830223843 76 233 2.0 3.0 0.00 0.00 0.00 86 1018.4
20260830223351 77 240 1.0 3.0 0.00 0.00 0.00 86 1018.3
20260830223109 76 213 1.0 2.0 0.00 0.00 0.00 86 1017.8
20260830223054 76 232 0.0 2.0 0.00 0.00 0.00 86 1018.0
20260830222856 77 225 1.0 2.0 0.00 0.00 0.00 86 1018.2
20260830222344 77 212 1.0 2.0 0.00 0.00 0.00 86 1018.3
20260830221852 77 189 1.0 3.0 0.00 0.00 0.00 85 1018.4
20260830221616 77 200 0.0 3.0 0.00 0.00 0.00 85 1018.0
20260830221551 77 0 0.0 3.0 0.00 0.00 0.00 84 1018.2
20260830221341 77 208 1.0 3.0 0.00 0.00 0.00 85 1018.5
20260830220910 77 215 0.0 3.0 0.00 0.00 0.00 84 1018.6
20260830220358 77 229 1.0 4.0 0.00 0.00 0.00 84 1018.6
20260830220118 77 252 1.0 4.0 0.00 0.00 0.00 84 1018.2
20260830220058 77 0 1.0 4.0 0.00 0.00 0.00 83 1018.4
20260830215844 77 246 2.0 4.0 0.00 0.00 0.00 84 1018.6
20260830215351 77 213 2.0 5.0 0.00 0.00 0.00 83 1018.6
20260830214840 78 231 3.0 5.0 0.00 0.00 0.00 84 1018.5
20260830214602 77 224 0.0 5.0 0.00 0.00 0.00 84 1018.1
20260830214555 77 225 0.0 5.0 0.00 0.00 0.00 83 1018.2
20260830214348 78 199 0.0 5.0 0.00 0.00 0.00 84 1018.5
20260830213855 78 197 2.0 4.0 0.00 0.00 0.00 83 1018.5
20260830213407 78 182 1.0 5.0 0.00 0.00 0.00 84 1018.4
20260830213104 78 200 0.0 5.0 0.00 0.00 0.00 84 1017.9
20260830213043 78 0 1.0 5.0 0.00 0.00 0.00 83 1018.1
20260830212850 78 217 2.0 5.0 0.00 0.00 0.00 83 1018.3
20260830212338 78 202 1.0 6.0 0.00 0.00 0.00 83 1018.4
20260830211848 78 193 2.0 6.0 0.00 0.00 0.00 82 1018.4
20260830211615 78 205 2.0 6.0 0.00 0.00 0.00 83 1018.1
20260830211555 78 204 2.0 5.0 0.00 0.00 0.00 82 1018.2
20260830211338 79 227 2.0 5.0 0.00 0.00 0.00 83 1018.5
20260830210849 79 195 1.0 5.0 0.00 0.00 0.00 83 1018.5
20260830210359 79 224 1.0 5.0 0.00 0.00 0.00 82 1018.4
20260830210104 78 230 1.0 8.0 0.00 0.00 0.00 81 1018.2
20260830205846 79 315 1.0 8.0 0.00 0.00 0.00 82 1018.4
20260830205335 79 219 2.0 8.0 0.00 0.00 0.00 82 1018.6
20260830204845 78 269 1.0 7.0 0.00 0.00 0.00 82 1018.7
20260830204613 78 248 1.0 8.0 0.00 0.00 0.00 82 1018.3
20260830204553 78 284 1.0 8.0 0.00 0.00 0.00 82 1018.3
20260830204355 78 330 2.0 8.0 0.00 0.00 0.00 82 1018.8
20260830203906 78 355 3.0 8.0 0.00 0.00 0.00 82 1018.8
20260830203358 78 257 1.0 7.0 0.00 0.00 0.00 83 1018.9
20260830203124 78 279 1.0 9.0 0.00 0.00 0.00 82 1018.5
20260830203045 78 340 2.0 9.0 0.00 0.00 0.00 82 1018.5
20260830202844 78 261 3.0 9.0 0.00 0.00 0.00 82 1018.8
20260830202353 78 248 2.0 6.0 0.00 0.00 0.00 83 1018.9
20260830201903 78 229 3.0 8.0 0.00 0.00 0.00 84 1018.9
20260830201621 77 202 1.0 8.0 0.00 0.00 0.00 83 1018.5
20260830201554 77 242 2.0 9.0 0.00 0.00 0.00 83 1018.5
20260830201353 77 231 2.0 9.0 0.00 0.00 0.00 83 1018.9
20260830200843 77 232 2.0 9.0 0.00 0.00 0.00 83 1019.0
20260830200354 77 194 3.0 8.0 0.00 0.00 0.00 84 1019.0
20260830200120 76 211 2.0 8.0 0.00 0.00 0.00 84 1018.7
20260830200055 76 214 2.0 7.0 0.00 0.00 0.00 83 1018.6
20260830195843 77 233 3.0 7.0 0.00 0.00 0.00 84 1019.1
20260830195353 77 198 2.0 7.0 0.00 0.00 0.00 85 1019.2
20260830194842 77 207 2.0 7.0 0.00 0.00 0.00 84 1019.2
20260830194610 76 227 1.0 6.0 0.00 0.00 0.00 84 1018.9
20260830194559 76 213 1.0 7.0 0.00 0.00 0.00 83 1018.9
20260830194353 76 305 3.0 6.0 0.00 0.00 0.00 84 1019.3
20260830193843 76 235 2.0 7.0 0.00 0.00 0.00 84 1019.2
20260830193339 76 219 1.0 5.0 0.00 0.00 0.00 85 1019.2
20260830193120 75 235 1.0 5.0 0.00 0.00 0.00 85 1018.9
20260830193056 75 235 1.0 5.0 0.00 0.00 0.00 84 1019.0
20260830192846 76 151 2.0 5.0 0.00 0.00 0.00 84 1019.2
20260830192411 76 212 1.0 3.0 0.00 0.00 0.00 84 1019.5
20260830191844 76 233 1.0 3.0 0.00 0.00 0.00 84 1019.5
20260830191607 75 246 0.0 3.0 0.00 0.00 0.00 84 1019.2
20260830191556 75 250 0.0 3.0 0.00 0.00 0.00 83 1019.2
20260830191352 76 254 1.0 3.0 0.00 0.00 0.00 83 1019.7
20260830190841 76 227 0.0 5.0 0.00 0.00 0.00 84 1019.7
20260830190412 76 195 0.0 5.0 0.00 0.00 0.00 83 1019.8
20260830190110 75 188 2.0 5.0 0.00 0.00 0.00 82 1019.5
20260830190057 75 220 1.0 5.0 0.00 0.00 0.00 82 1019.4
20260830185857 76 200 1.0 5.0 0.00 0.00 0.00 82 1019.9
20260830185346 76 127 1.0 5.0 0.00 0.00 0.00 82 1020.0
20260830184853 76 69 2.0 4.0 0.00 0.00 0.00 82 1020.0
20260830184614 76 214 1.0 4.0 0.00 0.00 0.00 82 1019.7
20260830184559 76 0 0.0 4.0 0.00 0.00 0.00 81 1019.7
20260830184341 76 227 1.0 4.0 0.00 0.00 0.00 81 1020.1
20260830183850 76 108 1.0 2.0 0.00 0.00 0.00 81 1020.1
20260830183358 77 204 1.0 5.0 0.00 0.00 0.00 80 1020.2
20260830183116 76 169 1.0 5.0 0.00 0.00 0.00 80 1019.9
20260830183047 76 213 2.0 5.0 0.00 0.00 0.00 79 1019.8
20260830182841 77 192 2.0 5.0 0.00 0.00 0.00 79 1020.3
20260830182349 77 218 2.0 5.0 0.00 0.00 0.00 80 1020.2
20260830181836 77 262 0.0 5.0 0.00 0.00 0.00 79 1020.3
20260830181625 76 202 0.0 5.0 0.00 0.00 0.00 77 1020.0
20260830181556 76 0 1.0 5.0 0.00 0.00 0.00 77 1019.8
20260830181408 77 234 2.0 5.0 0.00 0.00 0.00 78 1020.4
20260830180836 77 155 1.0 7.0 0.00 0.00 0.00 77 1020.4
20260830180349 78 227 2.0 8.0 0.00 0.00 0.00 76 1020.5
20260830180113 77 244 3.0 8.0 0.00 0.00 0.00 75 1020.2
20260830180054 77 236 3.0 8.0 0.00 0.00 0.00 74 1020.0
20260830175836 78 190 4.0 8.0 0.00 0.00 0.00 74 1020.6
20260830175346 78 234 1.0 6.0 0.00 0.00 0.00 74 1020.5
20260830174836 78 197 2.0 7.0 0.00 0.00 0.00 74 1020.5
20260830174617 78 241 2.0 7.0 0.00 0.00 0.00 74 1020.2
20260830174547 78 196 3.0 7.0 0.00 0.00 0.00 72 1020.1
20260830174347 78 229 4.0 7.0 0.00 0.00 0.00 75 1020.6
20260830173837 77 219 2.0 5.0 0.00 0.00 0.00 78 1020.6
20260830173410 77 153 1.0 5.0 0.00 0.00 0.00 75 1020.5
20260830173113 77 180 0.0 5.0 0.00 0.00 0.00 76 1020.3
20260830173053 77 0 1.0 5.0 0.00 0.00 0.00 77 1020.1
20260830172854 78 168 2.0 5.0 0.00 0.00 0.00 74 1020.7
20260830172343 78 200 2.0 5.0 0.00 0.00 0.00 71 1020.9
20260830171853 79 273 1.0 4.0 0.00 0.00 0.00 74 1021.0
20260830171559 78 0 2.0 4.0 0.00 0.00 0.00 71 1020.4
20260830171504 78 197 2.0 4.0 0.00 0.00 0.00 72 1020.5
20260830171403 78 244 2.0 4.0 0.00 0.00 0.00 73 1020.9
20260830170851 79 205 2.0 6.0 0.00 0.00 0.00 71 1020.9
20260830170343 80 163 2.0 6.0 0.00 0.00 0.00 69 1021.0
20260830170106 80 190 1.0 6.0 0.00 0.00 0.00 68 1020.6
20260830170051 80 277 1.0 8.0 0.00 0.00 0.00 70 1020.4
20260830165910 80 155 2.0 8.0 0.00 0.00 0.00 70 1020.9
20260830165338 79 230 1.0 8.0 0.00 0.00 0.00 72 1021.0
20260830164850 80 187 4.0 8.0 0.00 0.00 0.00 67 1021.0
20260830164623 79 238 2.0 5.0 0.00 0.00 0.00 69 1020.6
20260830164557 79 306 2.0 6.0 0.00 0.00 0.00 68 1020.6
20260830164341 80 194 2.0 6.0 0.00 0.00 0.00 68 1020.9
20260830163852 79 167 2.0 6.0 0.00 0.00 0.00 71 1020.9
20260830163403 79 243 3.0 7.0 0.00 0.00 0.00 69 1020.9
20260830163111 79 232 2.0 7.0 0.00 0.00 0.00 68 1020.6
20260830163059 79 224 3.0 7.0 0.00 0.00 0.00 68 1020.6
20260830162848 79 232 3.0 7.0 0.00 0.00 0.00 67 1021.1
20260830162338 78 219 4.0 6.0 0.00 0.00 0.00 73 1021.1
20260830161848 77 228 1.0 4.0 0.00 0.00 0.00 73 1021.2
20260830161617 76 234 0.0 4.0 0.00 0.00 0.00 71 1021.0
20260830161546 77 194 0.0 4.0 0.00 0.00 0.00 71 1020.8
20260830161339 77 155 1.0 4.0 0.00 0.00 0.00 72 1021.3
20260830160850 77 170 1.0 5.0 0.00 0.00 0.00 70 1021.5
20260830160340 77 213 1.0 6.0 0.00 0.00 0.00 69 1021.6
20260830160105 76 321 2.0 6.0 0.00 0.00 0.00 68 1021.2
20260830155848 77 231 2.0 5.0 0.00 0.00 0.00 72 1021.7
20260830155342 77 240 2.0 6.0 0.00 0.00 0.00 69 1021.7
20260830154851 77 222 3.0 6.0 0.00 0.00 0.00 67 1021.7
20260830154613 76 202 2.0 7.0 0.00 0.00 0.00 67 1021.4
20260830154552 76 218 1.0 7.0 0.00 0.00 0.00 70 1021.1
20260830154359 77 226 1.0 7.0 0.00 0.00 0.00 68 1021.7
20260830153847 77 232 1.0 3.0 0.00 0.00 0.00 69 1021.7
20260830153357 77 153 1.0 4.0 0.00 0.00 0.00 68 1021.8
20260830153118 76 203 1.0 4.0 0.00 0.00 0.00 65 1021.4
20260830153051 76 151 1.0 4.0 0.00 0.00 0.00 65 1021.4
20260830152845 77 212 1.0 4.0 0.00 0.00 0.00 71 1021.8
20260830152354 77 193 1.0 4.0 0.00 0.00 0.00 66 1021.8
20260830151845 76 211 2.0 4.0 0.00 0.00 0.00 68 1021.8
20260830151608 75 221 1.0 4.0 0.00 0.00 0.00 68 1021.5
20260830151553 75 234 1.0 4.0 0.00 0.00 0.00 72 1021.5
20260830151355 75 202 1.0 4.0 0.00 0.00 0.00 72 1021.9
20260830150843 76 234 2.0 4.0 0.00 0.00 0.00 68 1022.2
20260830150353 76 109 1.0 8.0 0.00 0.00 0.00 68 1022.3
20260830150114 76 60 1.0 8.0 0.00 0.00 0.00 67 1022.0
20260830150055 76 0 1.0 8.0 0.00 0.00 0.00 67 1021.9
20260830145840 76 147 2.0 8.0 0.00 0.00 0.00 68 1022.4
20260830145351 76 219 2.0 7.0 0.00 0.00 0.00 70 1022.5
20260830144840 76 273 3.0 7.0 0.00 0.00 0.00 68 1022.5
20260830144612 75 194 1.0 8.0 0.00 0.00 0.00 71 1022.2
20260830144603 74 140 1.0 8.0 0.00 0.00 0.00 71 1022.0
20260830144412 74 226 2.0 8.0 0.00 0.00 0.00 72 1022.5
20260830143841 74 209 4.0 7.0 0.00 0.00 0.00 71 1022.5
20260830143352 73 221 1.0 6.0 0.00 0.00 0.00 73 1022.5
20260830143120 73 205 1.0 6.0 0.00 0.00 0.00 72 1022.1
20260830143053 73 160 1.0 6.0 0.00 0.00 0.00 72 1022.0
20260830142838 73 179 2.0 6.0 0.00 0.00 0.00 73 1022.4
20260830142349 72 163 2.0 5.0 0.00 0.00 0.00 76 1022.5
20260830141838 72 213 2.0 5.0 0.00 0.00 0.00 79 1022.4
20260830141607 71 240 1.0 5.0 0.00 0.00 0.00 79 1021.9
20260830141552 71 245 1.0 6.0 0.00 0.00 0.00 79 1021.7
20260830141349 71 233 2.0 5.0 0.00 0.00 0.00 80 1022.3
20260830140900 71 173 1.0 3.0 0.00 0.00 0.00 82 1022.4
20260830140350 70 230 1.0 4.0 0.00 0.00 0.00 83 1022.3
20260830140115 69 167 1.0 4.0 0.00 0.00 0.00 83 1022.0
20260830140056 69 162 1.0 5.0 0.00 0.00 0.00 83 1021.7
20260830135838 69 157 1.0 4.0 0.00 0.00 0.00 83 1022.5
20260830135348 68 166 1.0 4.0 0.00 0.00 0.00 86 1022.5
20260830134838 68 140 1.0 3.0 0.00 0.00 0.00 88 1022.5
20260830134608 67 175 1.0 3.0 0.00 0.00 0.00 89 1022.3
20260830134604 67 178 1.0 3.0 0.00 0.00 0.00 89 1021.9
20260830134349 67 171 1.0 3.0 0.00 0.00 0.00 89 1022.6
20260830133839 67 180 1.0 4.0 0.00 0.00 0.00 90 1022.7
20260830133351 66 169 0.0 5.0 0.00 0.00 0.00 92 1022.6
20260830133142 65 250 0.0 5.0 0.00 0.00 0.00 93 1022.3
20260830133056 65 0 1.0 5.0 0.00 0.00 0.00 93 1022.0
20260830132838 65 64 2.0 5.0 0.00 0.00 0.00 95 1022.7
20260830132349 65 219 2.0 6.0 0.00 0.00 0.00 96 1022.8
20260830131900 64 223 0.0 6.0 0.00 0.00 0.00 96 1022.8
20260830131617 64 221 1.0 6.0 0.00 0.00 0.00 97 1022.5
20260830131557 64 221 1.0 6.0 0.00 0.00 0.00 96 1022.1
20260830131348 64 235 2.0 4.0 0.00 0.00 0.00 97 1022.8
20260830130859 64 215 0.0 2.0 0.00 0.00 0.00 97 1022.9
20260830130351 63 360 0.0 1.0 0.00 0.00 0.00 97 1022.9
20260830130116 63 32 0.0 1.0 0.00 0.00 0.00 97 1022.7
20260830125857 63 294 0.0 1.0 0.00 0.00 0.00 97 1022.9
20260830125347 62 294 0.0 1.0 0.00 0.00 0.00 97 1023.0
20260830124857 62 294 0.0 1.0 0.00 0.00 0.00 97 1023.1
20260830124619 61 294 0.0 1.0 0.00 0.00 0.00 97 1022.8
20260830124547 61 0 0.0 1.0 0.00 0.00 0.00 97 1022.4
20260830124347 61 294 0.0 1.0 0.00 0.00 0.00 97 1023.1
20260830123838 61 294 0.0 0.0 0.00 0.00 0.00 97 1023.0
20260830123351 61 294 0.0 0.0 0.00 0.00 0.00 97 1023.0
20260830123116 60 294 0.0 0.0 0.00 0.00 0.00 97 1022.8
20260830123050 60 0 0.0 1.0 0.00 0.00 0.00 96 1022.4
20260830122841 61 294 0.0 1.0 0.00 0.00 0.00 97 1023.0
20260830122348 60 294 0.0 1.0 0.00 0.00 0.00 97 1023.1
20260830121857 60 294 0.0 0.0 0.00 0.00 0.00 97 1023.1
20260830121618 60 294 0.0 0.0 0.00 0.00 0.00 97 1022.9
20260830121602 60 0 0.0 0.0 0.00 0.00 0.00 96 1022.6
20260830121345 60 294 0.0 0.0 0.00 0.00 0.00 97 1023.2
20260830120856 60 294 0.0 0.0 0.00 0.00 0.00 97 1023.2
20260830120408 60 294 0.0 0.0 0.00 0.00 0.00 97 1023.2
20260830120108 59 294 0.0 0.0 0.00 0.00 0.00 97 1023.0
20260830120049 59 0 0.0 0.0 0.00 0.00 0.00 96 1022.6
20260830115853 60 294 0.0 0.0 0.00 0.00 0.00 97 1023.3
20260830115400 60 294 0.0 0.0 0.00 0.00 0.00 97 1023.4
20260830114909 60 294 0.0 0.0 0.00 0.00 0.00 97 1023.3
20260830114632 59 294 0.0 0.0 0.00 0.00 0.00 97 1023.0
20260830114544 59 0 0.0 0.0 0.00 0.00 0.00 96 1022.7
20260830114338 60 294 0.0 0.0 0.00 0.00 0.00 97 1023.3
20260830113848 59 294 0.0 0.0 0.00 0.00 0.00 97 1023.3
20260830113359 59 294 0.0 0.0 0.00 0.00 0.00 97 1023.3
20260830113121 59 294 0.0 0.0 0.00 0.00 0.00 97 1023.0
20260830113053 59 0 0.0 0.0 0.00 0.00 0.00 96 1022.6
20260830112845 59 294 0.0 0.0 0.00 0.00 0.00 97 1023.3
20260830112354 59 294 0.0 0.0 0.00 0.00 0.00 97 1023.2
20260830111844 59 294 0.0 1.0 0.00 0.00 0.00 97 1023.2
20260830111608 58 294 0.0 1.0 0.00 0.00 0.00 97 1022.9
20260830111551 58 0 0.0 1.0 0.00 0.00 0.00 96 1022.6
20260830111353 59 294 0.0 1.0 0.00 0.00 0.00 97 1023.2
20260830110841 58 294 0.0 1.0 0.00 0.00 0.00 97 1023.2
20260830110352 58 294 0.0 1.0 0.00 0.00 0.00 97 1023.3
20260830110116 58 294 0.0 0.0 0.00 0.00 0.00 97 1023.0
20260830110049 58 0 0.0 0.0 0.00 0.00 0.00 96 1022.6
20260830105837 58 294 0.0 0.0 0.00 0.00 0.00 97 1023.2
20260830105348 58 294 0.0 1.0 0.00 0.00 0.00 97 1023.2
20260830104839 58 294 0.0 1.0 0.00 0.00 0.00 97 1023.1
20260830104608 58 294 0.0 1.0 0.00 0.00 0.00 97 1022.8
20260830104543 58 0 0.0 1.0 0.00 0.00 0.00 96 1022.4
20260830104350 58 294 0.0 1.0 0.00 0.00 0.00 97 1023.1
20260830103839 58 294 0.0 1.0 0.00 0.00 0.00 97 1023.0
20260830103413 58 294 0.0 1.0 0.00 0.00 0.00 97 1023.1
20260830103116 58 294 0.0 0.0 0.00 0.00 0.00 97 1022.9
20260830103049 58 0 0.0 0.0 0.00 0.00 0.00 96 1022.4
20260830102858 58 294 0.0 0.0 0.00 0.00 0.00 97 1023.1
20260830102349 58 294 0.0 0.0 0.00 0.00 0.00 97 1023.1
20260830101837 58 294 0.0 0.0 0.00 0.00 0.00 97 1023.0
20260830101604 58 294 0.0 0.0 0.00 0.00 0.00 97 1022.8
20260830101546 58 0 0.0 0.0 0.00 0.00 0.00 96 1022.4
20260830101346 58 294 0.0 0.0 0.00 0.00 0.00 97 1023.1
20260830100856 58 294 0.0 0.0 0.00 0.00 0.00 97 1023.0
20260830100348 58 294 0.0 0.0 0.00 0.00 0.00 97 1023.1
20260830100116 58 294 0.0 1.0 0.00 0.00 0.00 97 1022.8
20260830100052 58 0 0.0 1.0 0.00 0.00 0.00 96 1022.5
20260830095855 58 294 0.0 1.0 0.00 0.00 0.00 97 1023.1
20260830095346 58 294 0.0 1.0 0.00 0.00 0.00 97 1023.1
20260830094856 58 294 0.0 1.0 0.00 0.00 0.00 97 1023.2
20260830094604 57 294 0.0 1.0 0.00 0.00 0.00 96 1022.9
20260830094553 57 0 0.0 0.0 0.00 0.00 0.00 96 1022.5
20260830094407 58 294 0.0 0.0 0.00 0.00 0.00 96 1023.1
20260830093835 58 294 0.0 0.0 0.00 0.00 0.00 96 1023.1
20260830093346 58 294 0.0 0.0 0.00 0.00 0.00 97 1023.2
20260830093111 57 294 0.0 0.0 0.00 0.00 0.00 97 1022.9
20260830093054 57 0 0.0 0.0 0.00 0.00 0.00 96 1022.4
20260830092853 58 294 0.0 0.0 0.00 0.00 0.00 97 1023.2
20260830092343 58 294 0.0 0.0 0.00 0.00 0.00 97 1023.2
20260830091854 58 294 0.0 0.0 0.00 0.00 0.00 97 1023.2
20260830091557 57 0 0.0 0.0 0.00 0.00 0.00 96 1022.5
20260830091505 57 294 0.0 0.0 0.00 0.00 0.00 97 1022.9
20260830091404 58 294 0.0 0.0 0.00 0.00 0.00 97 1023.2
20260830090852 58 294 0.0 0.0 0.00 0.00 0.00 97 1023.2
20260830090343 58 294 0.0 0.0 0.00 0.00 0.00 97 1023.2
20260830090107 57 294 0.0 0.0 0.00 0.00 0.00 97 1022.9
20260830090104 57 0 0.0 0.0 0.00 0.00 0.00 96 1022.5
20260830085849 57 294 0.0 0.0 0.00 0.00 0.00 97 1023.2
20260830085338 57 294 0.0 0.0 0.00 0.00 0.00 96 1023.2